OSDIOSLK

Guest
Details From OSDI - DAMASCUS INTL
To OSLK - BASSEL AL ASSAD INTL
Flight Number -
Tags decoded
Created
Modified
Stats Distance 218 nm / 404 km
Max Altitude 0 ft / 0 m
Waypoints 7
Social Downloads 4
Likes 1
Share VATSIM

Download

Looking for another format? Having issues loading an existing format? Contact us
Advertisement - Login to hide

Notes

Requested: OSDI DAM G202 ABBAS R785 BAN OSLK

Route

OSDI DAM ABBAS R785 BAN OSLK

ID Type Via Altitude Latitude Longitude Leg Dist Tot Dist Heading (true) Name
O OSDI APT - 0 ft / 0 m 33.41063˚ 36.51426˚ - 0 nm - DAMASCUS INTL
DAM VOR - 0 ft / 0 m 33.36488˚ 36.46862˚ 3 nm 3 nm 220° / 220° DAMASCUS VOR-DME
ABBAS FIX - 0 ft / 0 m 33.43333˚ 37.72626˚ 63 nm 66 nm 86° / 87° -
BASEM FIX R785 (AWY-LO) 0 ft / 0 m 33.56028˚ 37.65194˚ 8 nm 75 nm 334° / 334° -
KTN VOR R785 (AWY-LO) 0 ft / 0 m 34.21328˚ 37.26421˚ 43 nm 118 nm 334° / 334° KARIATAIN VOR-DME
BAN NDB R785 (AWY-HI) 0 ft / 0 m 35.22829˚ 35.95792˚ 88 nm 207 nm 314° / 313° BANIAS NDB
O OSLK APT - 0 ft / 0 m 35.40128˚ 35.94844˚ 10 nm 218 nm 357° / 357° BASSEL AL ASSAD INTL

Altitude Profile

Advertisement - Login to hide

Weather


0- 5 10 15 20 25 30 35+ Temperature / ° C

Clouds and Precipitation
Forecast for 2018-05-24 18:00 UTC. Updated 6 hours ago

Ground ~20,000 ft ~40,000 ft Winds

OSDI

Details ICAO OSDI (DAM)
Name DAMASCUS INTL
Region Syria
Timezone Asia/Damascus (UTC+3.0)
Stats Elevation 2,020 ft / 616 m (AMSL)
Location 33.410635° 36.514265°
Runways 2
Magnetic Variation 4.907° E

METAR

OSDI 242300Z 21008KT CAVOK 19/04 Q1012

Decode

TAF

Not found

Departure Runways

ID Width Length Bearing (true) Bearing (mag) Surface Threshold Offset Overrun Length
05L 148 ft / 45 m 11,808 ft / 3,599 m 48.36° 43.45° Asphalt 0 ft / 0 m 197 ft / 60 m
05R 148 ft / 45 m 11,674 ft / 3,558 m 48.33° 43.42° Asphalt 0 ft / 0 m 197 ft / 60 m
23L 148 ft / 45 m 11,674 ft / 3,558 m 228.35° 223.44° Asphalt 0 ft / 0 m 197 ft / 60 m
23R 148 ft / 45 m 11,808 ft / 3,599 m 228.38° 223.47° Asphalt 0 ft / 0 m 197 ft / 60 m

OSLK

Details ICAO OSLK (LTK)
Name BASSEL AL ASSAD INTL
Region Syria
Timezone Asia/Damascus (UTC+3.0)
Stats Elevation 157 ft / 48 m (AMSL)
Location 35.401282° 35.948444°
Runways 1
Magnetic Variation 5.176° E

METAR

OSLK 242300Z 07006KT CAVOK 20/17 Q1009

Decode

TAF

Not found

Destination Runways

ID Width Length Bearing (true) Bearing (mag) Surface Threshold Offset Overrun Length
17 148 ft / 45 m 9,209 ft / 2,807 m 176.62° 171.44° Asphalt 0 ft / 0 m 197 ft / 60 m
35 148 ft / 45 m 9,209 ft / 2,807 m 356.62° 351.44° Asphalt 590 ft / 180 m 0 ft / 0 m

Approach Navaids

Runway Type Ident Frequency Range Bearing (true) Bearing (mag) Slope Elevation
17 Localiser IBA 109.10 MHz 18 nm / 33 km 176.63° 171.45° - 157 ft / 48 m (AMSL)
17 Glidescope IBA 109.10 MHz 10 nm / 19 km 176.62° 171.44° 3.00° 157 ft / 48 m (AMSL)

Popular Alternatives